QPF
0.00 0.00 0.00 0.00 0.00 0.00 0.00 0.00 0.00 0.00 0.00 0.00 0.00 0.00 0.00 0.00 0.00 0.00 0.00 0.00 0.00 0.00 0.00 0.00 0.00 0.00 0.00 0.00 0.00 0.00 0.00 0.00 0.00 0.00 0.02 0.03 0.08 0.05 0.00 0.00 0.00 0.00 0.00 0.00 0.00
0.00 0.00 0.00 0.00 0.00 0.00 0.00 0.00 0.00 0.00 0.00 0.00 0.00 0.00 0.00 0.00 0.00 0.00 0.00 0.00 0.00 0.00 0.00 0.00 0.00 0.00 0.00 0.00 0.00 0.01 0.00 0.00 0.00 0.00 0.00 0.05 0.11 0.11 0.01 0.00 0.00 0.00 0.00 0.00 0.00
0.00 0.00 0.00 0.00 0.00 0.00 0.00 0.00 0.00 0.00 0.00 0.00 0.00 0.00 0.00 0.00 0.00 0.00 0.00 0.00 0.00 0.00 0.00 0.00 0.00 0.00 0.00 0.00 0.00 0.00 0.00 0.00 0.00 0.00 0.00 0.04 0.11 0.05 0.00 0.01 0.01 0.00 0.00 0.00 0.00
0.00 0.00 0.00 0.00 0.00 0.00 0.00 0.00 0.00 0.00 0.00 0.00 0.00 0.00 0.00 0.00 0.00 0.00 0.00 0.00 0.00 0.00 0.00 0.00 0.00 0.00 0.00 0.00 0.00 0.00 0.00 0.00 0.00 0.00 0.00 0.00 0.00 0.01 0.01 0.07 0.02 0.00 0.00 0.00 0.00
0.00 0.00 0.00 0.00 0.00 0.00 0.00 0.00 0.00 0.00 0.00 0.00 0.00 0.00 0.00 0.00 0.00 0.00 0.00 0.00 0.00 0.00 0.00 0.00 0.00 0.00 0.00 0.00 0.00 0.00 0.00 0.00 0.00 0.00 0.00 0.00 0.00 0.00 0.01 0.05 0.00 0.00 0.00 0.00 0.00
0.00 0.00 0.00 0.00 0.00 0.00 0.00 0.00 0.00 0.00 0.00 0.00 0.00 0.00 0.00 0.00 0.00 0.00 0.00 0.00 0.00 0.00 0.00 0.00 0.00 0.00 0.00 0.00 0.00 0.00 0.00 0.00 0.00 0.00 0.00 0.00 0.00 0.01 0.02 0.01 0.04 0.04 0.00 0.00 0.00
0.00 0.00 0.00 0.00 0.00 0.00 0.00 0.00 0.00 0.00 0.00 0.00 0.00 0.00 0.00 0.00 0.00 0.00 0.00 0.00 0.00 0.00 0.00 0.00 0.00 0.00 0.00 0.00 0.00 0.00 0.00 0.00 0.00 0.00 0.00 0.00 0.00 0.00 0.03 0.12 0.04 0.04 0.01 0.00 0.00
0.00 0.00 0.00 0.00 0.00 0.00 0.00 0.00 0.00 0.00 0.00 0.00 0.00 0.00 0.00 0.00 0.00 0.00 0.00 0.00 0.00 0.00 0.00 0.00 0.00 0.00 0.00 0.00 0.00 0.00 0.00 0.00 0.00 0.00 0.00 0.00 0.01 0.02 0.06 0.11 0.03 0.02 0.00 0.00 0.00
0.00 0.00 0.00 0.00 0.00 0.00 0.00 0.00 0.00 0.00 0.00 0.00 0.00 0.00 0.00 0.00 0.00 0.00 0.00 0.00 0.00 0.00 0.00 0.00 0.00 0.00 0.00 0.00 0.00 0.00 0.00 0.00 0.00 0.00 0.00 0.01 0.01 0.03 0.02 0.02 0.04 0.04 0.01 0.00 0.00
0.00 0.00 0.00 0.00 0.00 0.00 0.00 0.00 0.00 0.00 0.00 0.00 0.00 0.00 0.00 0.00 0.00 0.00 0.00 0.00 0.00 0.00 0.00 0.00 0.00 0.00 0.00 0.00 0.00 0.00 0.00 0.00 0.00 0.00 0.00 0.00 0.00 0.00 0.00 0.01 0.04 0.04 0.01 0.00 0.00
0.00 0.00 0.00 0.00 0.00 0.01 0.00 0.00 0.00 0.00 0.00 0.00 0.00 0.00 0.00 0.00 0.00 0.00 0.00 0.00 0.00 0.00 0.00 0.00 0.00 0.00 0.00 0.00 0.00 0.00 0.00 0.00 0.00 0.00 0.00 0.00 0.00 0.00 0.00 0.00 0.00 0.00 0.00 0.00 0.00
0.00 0.00 0.00 0.00 0.00 0.00 0.00 0.00 0.00 0.00 0.00 0.00 0.00 0.00 0.00 0.00 0.00 0.00 0.00 0.00 0.00 0.00 0.00 0.00 0.00 0.00 0.00 0.00 0.00 0.00 0.00 0.00 0.00 0.00 0.00 0.00 0.00 0.00 0.00 0.00 0.00 0.00 0.00 0.00 0.00
0.00 0.00 0.00 0.00 0.00 0.00 0.00 0.00 0.00 0.00 0.00 0.00 0.00 0.00 0.00 0.00 0.00 0.00 0.00 0.00 0.00 0.00 0.00 0.00 0.00 0.00 0.00 0.00 0.00 0.00 0.00 0.00 0.00 0.00 0.00 0.00 0.00 0.00 0.00 0.00 0.00 0.00 0.00 0.00 0.00
0.00 0.01 0.00 0.00 0.00 0.00 0.00 0.00 0.00 0.00 0.00 0.00 0.00 0.00 0.00 0.00 0.00 0.00 0.00 0.00 0.00 0.00 0.00 0.00 0.00 0.00 0.00 0.00 0.00 0.00 0.00 0.00 0.00 0.00 0.00 0.00 0.00 0.00 0.00 0.00 0.00 0.00 0.00 0.00 0.00
0.01 0.01 0.00 0.00 0.00 0.00 0.00 0.00 0.00 0.00 0.00 0.00 0.00 0.00 0.00 0.00 0.00 0.00 0.00 0.00 0.00 0.00 0.00 0.00 0.00 0.00 0.00 0.00 0.00 0.00 0.00 0.00 0.00 0.00 0.00 0.00 0.00 0.00 0.00 0.00 0.00 0.00 0.00 0.00 0.00
0.00 0.00 0.00 0.00 0.00 0.00 0.00 0.00 0.00 0.00 0.00 0.00 0.00 0.00 0.00 0.00 0.00 0.00 0.00 0.00 0.00 0.00 0.00 0.00 0.00 0.00 0.00 0.00 0.00 0.00 0.00 0.00 0.00 0.00 0.00 0.00 0.00 0.00 0.00 0.00 0.00 0.00 0.00 0.00 0.00
0.00 0.00 0.00 0.00 0.00 0.00 0.00 0.00 0.00 0.00 0.00 0.00 0.00 0.00 0.00 0.00 0.00 0.00 0.00 0.00 0.00 0.00 0.00 0.00 0.00 0.00 0.00 0.00 0.00 0.00 0.00 0.00 0.00 0.00 0.00 0.00 0.00 0.00 0.00 0.00 0.00 0.00 0.00 0.00 0.00
0.00 0.00 0.00 0.00 0.00 0.00 0.00 0.00 0.00 0.00 0.00 0.00 0.00 0.00 0.00 0.00 0.00 0.00 0.00 0.00 0.00 0.00 0.00 0.00 0.00 0.00 0.00 0.00 0.00 0.00 0.00 0.00 0.00 0.00 0.00 0.00 0.00 0.00 0.00 0.00 0.00 0.00 0.00 0.00 0.00
0.00 0.00 0.00 0.00 0.00 0.00 0.00 0.00 0.00 0.00 0.00 0.00 0.00 0.00 0.00 0.00 0.00 0.00 0.00 0.00 0.00 0.00 0.00 0.00 0.00 0.00 0.00 0.00 0.00 0.00 0.00 0.00 0.00 0.00 0.00 0.00 0.00 0.00 0.00 0.00 0.00 0.00 0.00 0.00 0.00
0.00 0.00 0.00 0.00 0.00 0.00 0.00 0.00 0.00 0.00 0.00 0.00 0.00 0.00 0.00 0.00 0.00 0.00 0.00 0.00 0.00 0.00 0.00 0.00 0.00 0.00 0.00 0.00 0.00 0.00 0.00 0.00 0.00 0.00 0.00 0.00 0.00 0.00 0.00 0.00 0.00 0.00 0.00 0.00 0.00
0.00 0.00 0.00 0.00 0.00 0.00 0.00 0.00 0.00 0.00 0.00 0.00 0.00 0.00 0.00 0.00 0.00 0.00 0.00 0.00 0.00 0.00 0.00 0.00 0.00 0.00 0.00 0.00 0.00 0.00 0.00 0.00 0.00 0.00 0.00 0.00 0.00 0.00 0.00 0.00 0.00 0.00 0.00 0.00 0.00
0.00 0.00 0.00 0.00 0.00 0.00 0.00 0.00 0.00 0.00 0.00 0.00 0.00 0.00 0.00 0.00 0.00 0.00 0.00 0.00 0.00 0.00 0.00 0.00 0.00 0.00 0.00 0.00 0.00 0.00 0.00 0.00 0.00 0.00 0.00 0.00 0.00 0.00 0.00 0.00 0.00 0.00 0.00 0.00 0.00
0.00 0.00 0.00 0.00 0.00 0.00 0.00 0.00 0.00 0.00 0.00 0.00 0.00 0.00 0.00 0.00 0.00 0.00 0.00 0.00 0.00 0.00 0.00 0.00 0.00 0.00 0.00 0.00 0.00 0.00 0.00 0.00 0.00 0.00 0.00 0.00 0.00 0.00 0.00 0.00 0.00 0.00 0.00 0.00 0.00
0.00 0.00 0.00 0.00 0.00 0.00 0.00 0.00 0.00 0.00 0.00 0.00 0.00 0.00 0.00 0.00 0.00 0.00 0.00 0.00 0.00 0.00 0.00 0.00 0.00 0.00 0.00 0.00 0.00 0.00 0.00 0.00 0.00 0.00 0.00 0.00 0.00 0.00 0.00 0.00 0.00 0.00 0.00 0.00 0.00
0.00 0.00 0.00 0.00 0.00 0.00 0.00 0.00 0.00 0.00 0.00 0.00 0.00 0.00 0.00 0.00 0.00 0.00 0.00 0.00 0.00 0.00 0.00 0.00 0.00 0.00 0.00 0.00 0.00 0.00 0.00 0.00 0.00 0.00 0.00 0.00 0.00 0.00 0.00 0.00 0.00 0.00 0.00 0.00 0.00
0.00 0.00 0.00 0.00 0.00 0.00 0.00 0.00 0.00 0.00 0.00 0.00 0.00 0.00 0.00 0.00 0.00 0.00 0.00 0.00 0.00 0.00 0.00 0.00 0.00 0.00 0.00 0.00 0.00 0.00 0.00 0.00 0.00 0.00 0.00 0.00 0.00 0.00 0.00 0.00 0.00 0.00 0.00 0.00 0.00
0.00 0.00 0.00 0.00 0.00 0.00 0.00 0.00 0.00 0.00 0.00 0.00 0.00 0.00 0.00 0.00 0.00 0.00 0.00 0.00 0.00 0.00 0.00 0.00 0.00 0.00 0.00 0.00 0.00 0.00 0.00 0.00 0.00 0.00 0.00 0.00 0.00 0.00 0.00 0.00 0.00 0.00 0.00 0.00 0.00
MSLP
1017.87 1017.61 1017.33 1017.03 1016.71 1016.37 1016.05 1015.77 1015.51 1015.27 1014.95 1014.67 1014.45 1014.33 1014.25 1014.21 1014.16 1014.03 1012.56 1010.25 1010.36 1010.61 1010.92 1011.36 1011.63 1011.75 1011.83 1011.75 1011.75 1011.56 1011.11 1010.36 1009.99 1009.83 1010.72 1011.55 1011.82 1012.29 1012.11 1012.21 1012.46 1012.80 1013.24 1013.90 1015.23
1017.75 1017.46 1017.23 1016.95 1016.58 1016.29 1015.96 1015.65 1015.35 1015.05 1014.82 1014.55 1014.32 1014.17 1014.03 1014.03 1013.82 1012.58 1009.95 1009.94 1010.09 1010.36 1010.60 1010.82 1011.18 1011.54 1011.64 1011.63 1011.59 1011.38 1010.80 1010.03 1009.87 1009.74 1010.15 1010.95 1011.41 1012.00 1011.99 1012.17 1013.05 1013.29 1013.76 1014.59 1015.40
1017.69 1017.38 1017.07 1016.79 1016.47 1016.18 1015.83 1015.46 1015.19 1014.93 1014.66 1014.42 1014.19 1014.01 1013.95 1013.81 1012.86 1009.72 1008.99 1009.62 1009.96 1010.24 1010.49 1010.78 1011.14 1011.32 1011.51 1011.60 1011.42 1011.10 1010.40 1010.09 1009.69 1009.65 1009.99 1010.42 1011.16 1011.61 1011.59 1012.09 1012.71 1013.01 1013.83 1014.61 1015.40
1017.62 1017.30 1016.97 1016.62 1016.25 1015.93 1015.69 1015.34 1014.97 1014.73 1014.56 1014.33 1014.05 1013.93 1013.85 1013.65 1011.43 1009.13 1009.09 1009.43 1009.83 1010.11 1010.41 1010.73 1011.12 1011.06 1011.24 1011.24 1011.20 1011.00 1010.34 1010.15 1009.75 1009.74 1009.95 1010.17 1010.54 1010.87 1011.23 1011.73 1012.24 1013.12 1013.94 1014.29 1015.13
1017.54 1017.19 1016.83 1016.49 1016.13 1015.64 1015.34 1015.12 1014.83 1014.57 1014.32 1014.19 1013.98 1013.77 1013.81 1012.55 1010.05 1009.14 1009.38 1009.62 1009.96 1010.14 1010.23 1010.47 1010.80 1010.91 1010.76 1010.96 1010.94 1010.75 1010.15 1009.79 1009.49 1009.63 1009.76 1010.09 1010.31 1010.66 1011.16 1011.84 1012.55 1013.49 1014.41 1014.81 1015.27
1017.47 1017.05 1016.59 1016.25 1015.87 1015.42 1015.02 1014.74 1014.52 1014.22 1014.08 1013.89 1013.83 1013.71 1013.18 1011.19 1009.19 1009.32 1009.71 1010.08 1010.04 1010.14 1010.39 1010.58 1010.64 1010.80 1010.80 1010.77 1010.52 1010.14 1009.85 1009.33 1009.17 1009.18 1009.43 1009.76 1010.35 1010.75 1011.52 1012.25 1013.12 1013.74 1014.41 1014.93 1015.33
1017.25 1016.87 1016.41 1015.97 1015.55 1015.11 1014.78 1014.33 1014.00 1013.73 1013.57 1013.54 1013.49 1013.43 1012.37 1010.33 1009.48 1009.56 1009.97 1010.33 1010.50 1010.38 1010.36 1010.74 1010.66 1010.66 1010.67 1010.44 1010.30 1009.97 1009.42 1008.82 1009.22 1009.16 1009.51 1009.85 1010.47 1010.89 1011.93 1012.77 1013.45 1014.11 1014.49 1014.90 1015.42
1016.93 1016.51 1016.10 1015.63 1015.20 1014.83 1014.41 1013.95 1013.24 1012.81 1012.92 1013.18 1013.18 1013.08 1010.93 1009.71 1009.64 1009.82 1010.05 1010.53 1010.90 1010.77 1010.70 1010.91 1010.70 1010.67 1010.64 1010.55 1010.17 1009.67 1009.37 1008.54 1009.21 1009.24 1009.68 1009.92 1010.00 1010.82 1011.99 1012.71 1013.39 1013.99 1014.42 1014.85 1015.18
1016.48 1016.14 1015.81 1015.37 1014.96 1014.53 1014.15 1013.56 1012.62 1011.98 1012.75 1012.77 1013.00 1012.52 1010.21 1009.84 1009.85 1009.87 1009.77 1010.03 1010.84 1011.12 1011.09 1010.99 1010.86 1010.75 1010.77 1010.25 1009.90 1009.60 1008.75 1008.65 1008.87 1009.26 1009.44 1009.83 1010.04 1011.24 1012.29 1012.79 1013.35 1013.75 1013.98 1014.47 1014.88
1016.07 1015.77 1015.36 1014.95 1014.58 1014.07 1013.77 1013.35 1012.83 1012.70 1013.01 1012.93 1012.40 1011.95 1010.08 1008.98 1008.93 1009.62 1009.95 1009.91 1010.38 1011.05 1011.23 1011.20 1011.05 1010.74 1010.65 1010.04 1009.11 1009.12 1008.87 1008.85 1008.73 1009.06 1009.29 1009.49 1010.07 1011.05 1011.70 1012.61 1013.10 1013.76 1013.75 1013.98 1014.31
1015.70 1015.37 1014.99 1014.63 1014.23 1013.83 1013.43 1012.81 1013.00 1012.80 1012.43 1011.14 1010.49 1009.79 1008.97 1008.67 1008.82 1009.41 1009.68 1009.76 1010.07 1010.55 1010.61 1010.99 1010.53 1009.77 1009.92 1010.08 1009.89 1009.51 1009.12 1008.82 1008.91 1009.01 1009.01 1009.11 1009.50 1010.45 1011.17 1011.83 1012.43 1012.97 1013.23 1013.35 1013.63
1015.40 1014.95 1014.44 1014.18 1013.99 1013.59 1013.47 1012.09 1011.75 1011.87 1010.95 1009.93 1009.80 1009.53 1008.88 1008.49 1008.31 1009.19 1009.45 1009.22 1009.57 1009.73 1010.48 1010.93 1009.88 1010.22 1010.30 1010.22 1010.08 1009.80 1009.40 1009.15 1009.06 1009.13 1009.15 1009.12 1009.23 1009.99 1010.50 1010.95 1011.65 1012.16 1012.53 1012.71 1013.25
1015.02 1014.52 1014.01 1013.74 1013.54 1013.49 1012.73 1011.55 1011.41 1011.42 1010.79 1009.39 1009.10 1008.48 1007.98 1008.00 1007.59 1008.31 1008.67 1008.85 1009.02 1009.38 1009.81 1009.77 1009.39 1009.93 1009.99 1009.99 1009.91 1009.72 1009.37 1009.34 1009.13 1009.11 1009.18 1009.23 1009.20 1009.74 1010.53 1010.95 1011.34 1011.86 1012.12 1012.37 1012.56
1014.53 1014.11 1013.82 1013.45 1013.42 1012.83 1011.90 1011.37 1011.32 1011.32 1010.29 1009.15 1008.49 1007.36 1007.56 1007.35 1007.30 1007.47 1007.89 1007.91 1008.76 1008.89 1009.41 1009.51 1009.29 1009.35 1009.43 1009.36 1009.45 1009.29 1009.57 1009.42 1009.34 1009.10 1008.74 1009.29 1008.80 1009.36 1010.09 1010.72 1011.09 1011.25 1011.60 1011.68 1012.05
1014.18 1013.85 1013.59 1013.37 1013.07 1012.37 1011.86 1011.37 1011.26 1011.12 1009.85 1008.72 1007.70 1007.15 1007.21 1007.15 1007.11 1007.61 1007.77 1007.67 1008.09 1008.59 1008.98 1008.95 1008.99 1008.95 1008.89 1008.89 1009.28 1009.12 1009.46 1009.41 1009.39 1009.23 1009.24 1009.09 1008.96 1009.38 1010.04 1010.54 1011.10 1011.17 1011.19 1011.22 1011.40
1013.87 1013.54 1013.31 1013.15 1013.09 1011.76 1011.53 1011.27 1011.27 1010.87 1009.46 1008.45 1007.67 1007.18 1007.12 1007.22 1007.33 1007.57 1007.71 1007.93 1008.64 1008.77 1008.90 1008.73 1009.11 1008.89 1008.62 1008.95 1009.02 1009.17 1009.54 1009.80 1009.88 1009.45 1008.91 1008.73 1008.82 1009.56 1010.09 1010.81 1010.66 1010.42 1010.55 1010.79 1010.97
1013.41 1013.05 1012.80 1012.60 1011.94 1011.59 1011.31 1011.14 1011.03 1010.33 1009.99 1009.50 1008.64 1007.95 1007.84 1008.25 1008.29 1008.19 1008.74 1009.16 1009.41 1009.43 1009.23 1009.13 1009.07 1008.99 1008.84 1008.84 1009.36 1009.15 1009.11 1009.24 1009.39 1009.15 1008.40 1009.14 1009.31 1010.59 1010.98 1011.21 1011.14 1010.41 1009.53 1009.86 1010.28
1012.88 1012.75 1012.78 1012.17 1011.74 1011.75 1011.14 1010.97 1010.84 1011.21 1010.63 1010.24 1009.76 1008.97 1009.07 1009.59 1009.94 1009.91 1010.27 1010.74 1011.03 1010.63 1010.26 1009.57 1009.91 1009.66 1009.51 1008.99 1008.75 1009.19 1008.89 1008.25 1008.11 1008.45 1008.45 1009.56 1009.22 1010.79 1011.47 1011.67 1011.44 1010.55 1009.58 1009.47 1009.91
1012.49 1012.43 1012.12 1011.60 1011.69 1011.71 1011.05 1011.19 1012.45 1012.43 1012.00 1011.19 1010.43 1010.07 1010.49 1010.55 1010.53 1011.06 1011.92 1012.48 1012.47 1012.14 1011.31 1010.72 1010.72 1010.76 1010.50 1010.13 1010.05 1009.95 1009.59 1009.16 1008.87 1009.61 1008.94 1009.31 1009.99 1011.04 1011.43 1011.68 1011.69 1011.13 1010.41 1009.93 1009.78
1012.53 1012.09 1011.82 1011.56 1011.51 1011.27 1011.35 1012.61 1013.15 1013.28 1012.71 1012.04 1011.67 1011.75 1011.52 1011.79 1011.63 1012.14 1013.13 1013.89 1013.47 1013.10 1012.69 1011.87 1011.53 1011.81 1011.51 1011.16 1010.96 1010.42 1010.69 1010.08 1009.45 1009.15 1008.97 1010.20 1011.03 1011.94 1012.71 1013.15 1013.14 1012.57 1011.83 1010.73 1010.26
1012.44 1011.88 1011.45 1011.25 1011.29 1011.65 1012.92 1013.82 1013.79 1013.86 1013.44 1013.01 1013.16 1013.05 1013.33 1013.21 1013.37 1013.87 1014.71 1014.69 1014.45 1013.74 1013.27 1012.81 1012.07 1012.73 1012.35 1013.00 1012.70 1011.75 1011.36 1010.97 1010.16 1010.02 1009.24 1010.34 1012.36 1014.14 1014.66 1015.10 1015.04 1014.63 1013.85 1012.69 1011.65
1012.65 1012.11 1011.53 1011.01 1012.05 1013.90 1014.46 1014.90 1015.09 1014.51 1014.34 1014.09 1014.27 1014.41 1014.61 1014.70 1014.86 1014.95 1015.33 1015.56 1015.28 1014.57 1014.17 1014.17 1013.54 1013.57 1014.03 1014.37 1014.32 1013.45 1013.03 1012.30 1010.79 1011.13 1011.18 1011.01 1013.85 1015.30 1015.81 1016.22 1016.32 1016.20 1015.74 1015.01 1014.32
1013.57 1013.31 1012.20 1011.51 1013.41 1014.66 1015.37 1015.50 1015.78 1015.30 1015.21 1015.13 1015.38 1015.47 1015.67 1015.82 1015.93 1016.04 1016.12 1016.30 1015.89 1015.23 1015.14 1014.79 1014.73 1014.60 1014.65 1014.74 1014.68 1014.25 1014.09 1013.69 1012.93 1012.12 1012.11 1012.03 1014.48 1015.99 1016.50 1016.93 1017.15 1017.20 1017.17 1016.83 1016.32
1014.19 1014.23 1014.08 1014.45 1015.58 1015.39 1015.73 1016.09 1016.10 1016.32 1016.31 1016.32 1016.41 1016.18 1016.11 1016.45 1016.45 1016.79 1016.85 1016.77 1016.60 1016.20 1015.99 1015.55 1015.81 1015.31 1014.91 1015.17 1015.29 1015.09 1014.94 1014.47 1013.59 1012.83 1013.25 1013.86 1015.07 1016.34 1017.18 1017.71 1018.08 1018.14 1018.24 1018.08 1017.85
1015.21 1016.19 1016.51 1016.17 1016.22 1016.46 1016.39 1016.80 1016.65 1016.71 1016.85 1016.93 1017.17 1017.24 1017.00 1017.13 1017.28 1017.47 1017.49 1017.18 1016.83 1016.89 1016.45 1016.27 1016.33 1016.74 1016.71 1016.53 1016.20 1015.96 1015.82 1015.57 1014.92 1014.85 1014.42 1015.50 1016.13 1017.44 1018.31 1018.75 1018.99 1019.11 1019.04 1018.87 1018.85
1016.01 1016.52 1017.12 1017.19 1017.17 1016.87 1017.03 1017.39 1017.19 1017.28 1017.25 1017.45 1017.73 1018.09 1017.77 1018.00 1018.28 1018.21 1018.18 1018.09 1018.02 1017.59 1017.48 1017.66 1017.65 1017.72 1017.81 1017.70 1017.30 1016.88 1016.93 1016.77 1016.56 1016.28 1016.38 1016.91 1017.90 1019.09 1019.51 1019.65 1019.69 1019.76 1019.78 1019.80 1019.94
1017.13 1017.07 1016.56 1017.46 1017.27 1017.11 1017.53 1017.62 1017.67 1017.71 1018.10 1018.14 1018.22 1018.35 1018.59 1019.09 1019.08 1019.16 1019.24 1019.28 1019.13 1018.84 1018.50 1018.48 1018.50 1018.54 1018.54 1018.80 1018.42 1018.13 1018.09 1017.96 1017.85 1018.13 1018.05 1018.17 1019.80 1020.37 1020.19 1020.39 1020.54 1020.57 1020.67 1020.76 1020.91
Thickness
5703 5704 5705 5707 5709 5711 5714 5717 5720 5723 5727 5731 5733 5735 5737 5738 5740 5743 5756 5778 5779 5780 5781 5778 5776 5775 5776 5772 5776 5779 5760 5759 5768 5773 5767 5771 5766 5770 5782 5774 5778 5780 5775 5777 5770
5700 5701 5702 5704 5707 5709 5711 5714 5717 5720 5723 5727 5731 5733 5735 5737 5740 5748 5776 5778 5779 5779 5776 5772 5767 5771 5766 5766 5770 5764 5758 5767 5782 5786 5778 5776 5768 5767 5772 5772 5764 5769 5775 5773 5768
5695 5697 5699 5700 5703 5705 5708 5711 5714 5717 5720 5723 5727 5730 5732 5735 5743 5767 5780 5778 5777 5777 5777 5775 5772 5769 5760 5765 5766 5767 5762 5776 5784 5790 5789 5783 5777 5777 5776 5766 5768 5768 5769 5771 5766
5689 5691 5693 5696 5699 5702 5704 5707 5711 5714 5716 5719 5722 5724 5728 5732 5744 5770 5775 5775 5775 5775 5772 5766 5762 5758 5755 5753 5765 5756 5773 5777 5783 5789 5786 5781 5787 5781 5783 5779 5782 5779 5776 5775 5767
5683 5684 5687 5689 5692 5696 5700 5703 5706 5709 5712 5714 5717 5720 5722 5732 5748 5767 5768 5769 5769 5769 5764 5761 5754 5754 5752 5756 5759 5757 5770 5781 5788 5788 5788 5787 5782 5783 5782 5786 5784 5778 5771 5768 5767
5675 5677 5680 5683 5685 5689 5693 5697 5700 5703 5707 5709 5711 5714 5719 5730 5757 5759 5760 5760 5762 5762 5758 5759 5754 5758 5754 5753 5755 5768 5773 5780 5787 5787 5788 5781 5779 5784 5780 5782 5774 5772 5768 5767 5766
5667 5669 5672 5675 5678 5682 5685 5690 5695 5698 5702 5704 5706 5709 5716 5733 5748 5750 5751 5750 5754 5756 5750 5755 5759 5756 5756 5752 5764 5766 5764 5778 5776 5783 5778 5785 5767 5771 5776 5772 5765 5764 5766 5767 5765
5661 5662 5664 5668 5671 5675 5679 5684 5691 5696 5697 5697 5699 5702 5717 5737 5740 5742 5743 5740 5744 5749 5749 5753 5759 5753 5750 5760 5757 5756 5762 5759 5768 5777 5777 5778 5761 5777 5776 5767 5760 5761 5765 5765 5765
5656 5657 5658 5660 5664 5668 5672 5678 5685 5692 5688 5690 5691 5695 5713 5728 5725 5734 5739 5734 5734 5736 5741 5748 5748 5743 5746 5742 5741 5748 5748 5755 5760 5773 5772 5770 5765 5768 5771 5768 5761 5761 5767 5766 5766
5651 5651 5653 5655 5657 5663 5665 5669 5674 5676 5675 5678 5685 5688 5705 5715 5726 5727 5732 5734 5727 5724 5725 5727 5730 5730 5732 5736 5727 5735 5743 5750 5753 5765 5767 5764 5763 5765 5774 5768 5765 5760 5766 5766 5766
5645 5646 5648 5649 5652 5655 5658 5664 5666 5667 5668 5681 5689 5692 5702 5714 5719 5715 5722 5723 5724 5719 5709 5718 5718 5724 5733 5735 5735 5738 5742 5745 5754 5765 5763 5763 5766 5765 5774 5773 5767 5765 5766 5769 5769
5640 5641 5643 5643 5643 5646 5646 5662 5662 5660 5663 5676 5678 5680 5693 5703 5700 5701 5715 5710 5711 5705 5708 5704 5712 5722 5727 5730 5727 5729 5731 5735 5748 5758 5758 5759 5763 5768 5774 5777 5774 5770 5768 5771 5770
5636 5636 5637 5637 5635 5636 5641 5651 5652 5652 5651 5666 5670 5675 5687 5694 5695 5694 5707 5705 5702 5699 5702 5702 5718 5721 5721 5722 5719 5725 5727 5728 5734 5749 5754 5755 5755 5761 5767 5774 5777 5775 5776 5774 5773
5631 5631 5630 5629 5631 5631 5639 5643 5643 5643 5638 5649 5657 5672 5680 5688 5684 5702 5706 5704 5696 5695 5699 5701 5717 5714 5717 5719 5725 5716 5732 5732 5731 5735 5731 5751 5738 5756 5764 5764 5769 5775 5774 5776 5775
5627 5625 5622 5622 5625 5631 5632 5634 5635 5635 5613 5644 5651 5674 5673 5674 5684 5682 5699 5699 5689 5692 5700 5698 5703 5707 5710 5720 5724 5720 5730 5729 5728 5728 5730 5738 5746 5752 5760 5756 5756 5767 5773 5779 5781
5622 5620 5619 5619 5615 5626 5626 5629 5627 5612 5604 5629 5644 5650 5658 5664 5669 5677 5683 5693 5690 5687 5695 5700 5709 5712 5716 5721 5725 5728 5719 5715 5715 5721 5716 5739 5748 5740 5748 5748 5760 5772 5776 5779 5781
5621 5620 5620 5616 5622 5620 5623 5624 5607 5600 5620 5614 5622 5640 5645 5640 5649 5660 5658 5658 5663 5664 5672 5686 5694 5705 5714 5708 5712 5717 5712 5694 5693 5698 5715 5726 5735 5724 5741 5749 5755 5765 5783 5786 5787
5622 5620 5617 5617 5617 5616 5620 5614 5594 5599 5605 5616 5616 5630 5625 5628 5629 5639 5641 5642 5650 5659 5661 5670 5664 5686 5699 5706 5709 5708 5715 5706 5684 5693 5720 5719 5728 5722 5739 5749 5756 5770 5784 5792 5788
5623 5621 5621 5621 5616 5615 5618 5599 5583 5587 5597 5603 5616 5620 5615 5623 5633 5631 5625 5626 5635 5642 5654 5658 5658 5677 5684 5693 5700 5695 5695 5719 5700 5691 5717 5721 5726 5732 5740 5743 5750 5762 5774 5781 5787
5624 5624 5622 5621 5618 5619 5610 5585 5588 5589 5595 5604 5603 5606 5611 5611 5623 5624 5616 5618 5622 5634 5640 5648 5650 5657 5668 5681 5689 5696 5695 5694 5699 5682 5693 5693 5700 5704 5712 5719 5732 5745 5757 5774 5781
5628 5625 5626 5625 5623 5612 5591 5583 5588 5591 5594 5597 5594 5599 5596 5605 5608 5605 5600 5613 5616 5626 5632 5638 5653 5645 5659 5647 5652 5678 5681 5684 5699 5695 5699 5691 5686 5694 5697 5705 5712 5723 5738 5755 5770
5626 5617 5627 5630 5609 5585 5582 5580 5578 5586 5590 5594 5593 5588 5591 5594 5596 5600 5598 5602 5610 5619 5618 5620 5634 5626 5631 5639 5645 5657 5656 5667 5694 5677 5677 5701 5672 5686 5692 5698 5703 5707 5719 5732 5743
5616 5609 5622 5627 5598 5586 5580 5579 5578 5583 5583 5586 5584 5587 5585 5584 5590 5592 5595 5599 5605 5613 5612 5619 5615 5618 5626 5635 5641 5643 5650 5653 5661 5672 5666 5690 5665 5676 5685 5688 5694 5697 5702 5711 5720
5613 5604 5604 5599 5580 5586 5580 5574 5575 5575 5574 5576 5575 5582 5585 5582 5586 5583 5588 5593 5596 5603 5605 5613 5605 5616 5631 5625 5629 5631 5638 5648 5660 5668 5659 5661 5660 5665 5669 5674 5680 5687 5690 5696 5703
5604 5588 5581 5583 5583 5577 5577 5572 5572 5569 5573 5573 5568 5567 5573 5575 5574 5573 5578 5586 5595 5592 5600 5606 5601 5597 5600 5607 5615 5620 5624 5633 5642 5645 5654 5649 5654 5650 5653 5658 5665 5673 5680 5685 5687
5605 5594 5579 5575 5572 5578 5572 5567 5568 5567 5569 5565 5562 5561 5568 5564 5565 5566 5569 5573 5573 5587 5587 5588 5586 5589 5588 5595 5603 5610 5612 5617 5623 5633 5638 5642 5637 5633 5638 5646 5654 5659 5664 5669 5672
5591 5588 5596 5570 5576 5578 5570 5568 5565 5566 5563 5562 5561 5561 5560 5556 5559 5561 5562 5562 5566 5572 5577 5579 5580 5581 5582 5579 5588 5596 5599 5604 5611 5613 5622 5628 5615 5614 5624 5628 5632 5640 5648 5650 5653